Weather History for Charleston, SC

Change the Weather History Date:

Thursday, March 7, 2013

  Actual Average Record
Temperature  
Mean Temperature 46 °F 56 °F  
Max Temperature 61 °F 68 °F 86 °F (1961)
Min Temperature 31 °F 45 °F 22 °F (1960)
Degree Days  
Heating Degree Days 19 10  
Month to date heating degree days 133 72  
Since 1 July heating degree days 1518 1708  
Cooling Degree Days 0 1  
Month to date cooling degree days 0 5  
Year to date cooling degree days 21 12  
Moisture  
Dew Point 29 °F    
Average Humidity 57    
Maximum Humidity 85    
Minimum Humidity 29    
Precipitation  
Precipitation 0.00 in 0.12 in 1.34 in (1947)
Month to date precipitation T 0.81  
Year to date precipitation 10.82 7.48  
Snow  
Snow 0.00 in 0.00 in - ()
Month to date snowfall 0.0  
Since 1 July snowfall T 0.5  
Snow Depth 0.00 in    
Sea Level Pressure  
Sea Level Pressure 30.18 in    
Wind  
Wind Speed 7 mph (NNW)    
Max Wind Speed 15 mph    
Max Gust Speed 20 mph    
Visibility 10 miles    
Events      
T = Trace of Precipitation, MM = Missing Value Source: NWS Daily Summary

Daily Weather History Graph

Daily Weather History Graph

Search for Another Location

Airport:

Trip Planner

Search our weather history database for the weather conditions in past years. The results will help you decide how hot, cold, wet, or windy it might be!

Date:

Astronomy

Mar. 07, 2013 Rise Set
Actual Time 6:40 AM EST 6:22 PM EST
Civil Twilight 6:15 AM EST 6:46 PM EST
Nautical Twilight 5:47 AM EST 7:15 PM EST
Astronomical Twilight 5:18 AM EST 7:44 PM EST
Moon 3:27 AM EST (3/7) 2:18 PM EST (3/7)
Length of Visible Light 12h 31m
Length of Day
11h 41m
Waning Crescent, 20% of the Moon is Illuminated
Mar 7
Waning Crescent
Mar 11
New
Mar 19
First Quarter
Mar 27
Full
Apr 3
Last Quarter

Hourly Weather History & Observations

Time (EST) Temp. Windchill Dew Point Humidity Pressure Visibility Wind Dir Wind Speed Gust Speed Precip Events Conditions
12:56 AM 39.0 °F 32.3 °F 27.0 °F 62% 30.11 in 10.0 mi NNW 10.4 mph - N/A   Clear
1:56 AM 37.9 °F 31.5 °F 28.0 °F 68% 30.14 in 10.0 mi NNW 9.2 mph - N/A   Clear
2:56 AM 36.0 °F 29.0 °F 27.0 °F 70% 30.13 in 10.0 mi NNW 9.2 mph - N/A   Clear
3:56 AM 36.0 °F 29.6 °F 27.0 °F 70% 30.16 in 10.0 mi NW 8.1 mph - N/A   Clear
4:56 AM 34.0 °F 27.2 °F 27.0 °F 75% 30.16 in 10.0 mi NNW 8.1 mph - N/A   Clear
5:56 AM 30.9 °F 23.5 °F 26.1 °F 82% 30.17 in 10.0 mi North 8.1 mph - N/A   Clear
6:56 AM 34.0 °F 26.6 °F 27.0 °F 75% 30.20 in 10.0 mi NNW 9.2 mph - N/A   Clear
7:56 AM 39.9 °F 33.9 °F 28.9 °F 65% 30.23 in 10.0 mi North 9.2 mph - N/A   Clear
8:56 AM 45.0 °F 38.9 °F 28.9 °F 53% 30.23 in 10.0 mi North 12.7 mph - N/A   Clear
9:56 AM 48.9 °F - 28.0 °F 44% 30.24 in 10.0 mi North 9.2 mph - N/A   Partly Cloudy
10:56 AM 51.1 °F - 27.0 °F 39% 30.22 in 10.0 mi NNE 9.2 mph - N/A   Partly Cloudy
11:56 AM 55.0 °F - 27.0 °F 34% 30.21 in 10.0 mi NNW 8.1 mph - N/A   Partly Cloudy
12:56 PM 57.9 °F - 28.0 °F 32% 30.17 in 10.0 mi NW 8.1 mph - N/A   Partly Cloudy
1:56 PM 57.0 °F - 27.0 °F 32% 30.14 in 10.0 mi Variable 5.8 mph - N/A   Partly Cloudy
2:56 PM 61.0 °F - 28.0 °F 29% 30.14 in 10.0 mi NW 9.2 mph - N/A   Partly Cloudy
3:56 PM 61.0 °F - 28.0 °F 29% 30.13 in 10.0 mi WNW 6.9 mph 17.3 mph N/A   Partly Cloudy
4:56 PM 60.1 °F - 28.9 °F 31% 30.13 in 10.0 mi WNW 6.9 mph - N/A   Partly Cloudy
5:56 PM 57.0 °F - 28.9 °F 34% 30.14 in 10.0 mi NW 8.1 mph - N/A   Partly Cloudy
6:56 PM 52.0 °F - 30.0 °F 43% 30.17 in 10.0 mi NNW 4.6 mph - N/A   Partly Cloudy
7:56 PM 50.0 °F - 30.9 °F 48% 30.18 in 10.0 mi Calm Calm - N/A   Clear
8:56 PM 48.9 °F - 32.0 °F 52% 30.20 in 10.0 mi Calm Calm - N/A   Clear
9:56 PM 45.0 °F - 33.1 °F 63% 30.21 in 10.0 mi Calm Calm - N/A   Clear
10:56 PM 41.0 °F - 34.0 °F 76% 30.21 in 10.0 mi Calm Calm - N/A   Clear
11:56 PM 39.0 °F - 33.1 °F 79% 30.21 in 10.0 mi Calm Calm - N/A   Clear